Weather History for College Station, TX

Change the Weather History Date:

Saturday, February 4, 2012

  Actual Average Record
Temperature  
Mean Temperature 58 °F 53 °F  
Max Temperature 65 °F 63 °F 82 °F (1957)
Min Temperature 50 °F 42 °F 16 °F (1996)
Degree Days  
Heating Degree Days 7 13  
Month to date heating degree days 7 52  
Since 1 July heating degree days 875 1130  
Cooling Degree Days 0 1  
Month to date cooling degree days 8 1  
Year to date cooling degree days 19 12  
Growing Degree Days 8 (Base 50)    
Moisture  
Dew Point 53 °F    
Average Humidity 77    
Maximum Humidity 93    
Minimum Humidity 60    
Precipitation  
Precipitation 2.15 in 0.10 in 3.34 in (1955)
Month to date precipitation 6.43 0.40  
Year to date precipitation 9.21 3.64  
Sea Level Pressure  
Sea Level Pressure 30.07 in    
Wind  
Wind Speed 12 mph (North)    
Max Wind Speed 22 mph    
Max Gust Speed 29 mph    
Visibility 8 miles    
Events Rain , Thunderstorm    
T = Trace of Precipitation, MM = Missing Value Source: NWS Daily Summary

Daily Weather History Graph

Daily Weather History Graph

Search for Another Location

Airport:

Trip Planner

Search our weather history database for the weather conditions in past years. The results will help you decide how hot, cold, wet, or windy it might be!

Date:

Astronomy

Feb. 04, 2012 Rise Set
Actual Time 7:15 AM CST 6:04 PM CST
Civil Twilight 6:49 AM CST 6:29 PM CST
Nautical Twilight 6:21 AM CST 6:57 PM CST
Astronomical Twilight 5:52 AM CST 7:26 PM CST
Moon 3:09 PM CST (2/4) 4:33 AM CST (2/4)
Length of Visible Light 11h 39m
Length of Day
10h 48m
Waxing Gibbous, 89% of the Moon is Illuminated
Feb 4
Waxing Gibbous
Feb 7
Full
Feb 14
Last Quarter
Feb 21
New
Feb 29
First Quarter

Hourly Weather History & Observations

Time (CST) Temp. Dew Point Humidity Pressure Visibility Wind Dir Wind Speed Gust Speed Precip Events Conditions
12:53 AM 64.0 °F 62.1 °F 93% 29.97 in 3.0 mi ENE 5.8 mph - 0.16 in Rain Heavy Rain
1:10 AM 64.4 °F 62.6 °F 94% 29.97 in 3.0 mi NE 6.9 mph - 0.12 in Rain Heavy Rain
1:34 AM 64.4 °F 62.6 °F 94% 29.96 in 7.0 mi ENE 9.2 mph - 0.14 in Rain , Thunderstorm Light Rain
1:53 AM 64.0 °F 62.1 °F 93% 29.94 in 10.0 mi ENE 10.4 mph - 0.14 in Thunderstorm Thunderstorm
2:45 AM 64.4 °F 64.4 °F 100% 29.94 in 2.0 mi NNW 9.2 mph - 0.11 in Rain , Thunderstorm Heavy Thunderstorms and Rain
2:53 AM 64.0 °F 63.0 °F 96% 29.94 in 1.2 mi NNW 8.1 mph - 0.29 in Rain , Thunderstorm Heavy Thunderstorms and Rain
3:07 AM 62.6 °F 60.8 °F 94% 29.94 in 0.8 mi North 20.7 mph 24.2 mph 0.61 in Rain , Thunderstorm Heavy Thunderstorms and Rain
3:21 AM 62.6 °F 60.8 °F 94% 29.97 in 1.2 mi NNW 15.0 mph - 1.04 in Rain , Thunderstorm Heavy Thunderstorms and Rain
3:38 AM 62.6 °F 60.8 °F 94% 29.96 in 2.0 mi North 16.1 mph 19.6 mph 1.35 in Rain , Thunderstorm Heavy Thunderstorms and Rain
3:45 AM 62.6 °F 60.8 °F 94% 29.96 in 3.0 mi North 12.7 mph - 1.41 in Rain , Thunderstorm Heavy Thunderstorms and Rain
3:53 AM 63.0 °F 61.0 °F 93% 29.96 in 5.0 mi North 11.5 mph - 1.43 in Rain , Thunderstorm Thunderstorms and Rain
4:15 AM 62.6 °F 60.8 °F 94% 29.98 in 9.0 mi NW 16.1 mph - 0.02 in Rain , Thunderstorm Light Thunderstorms and Rain
4:41 AM 57.2 °F 55.4 °F 94% 30.02 in 7.0 mi North 18.4 mph 26.5 mph 0.05 in Rain , Thunderstorm Rain
4:43 AM 57.2 °F 55.4 °F 94% 30.01 in 7.0 mi North 16.1 mph 26.5 mph 0.05 in Rain Rain
4:46 AM 57.2 °F 55.4 °F 94% 30.02 in 7.0 mi North 15.0 mph 25.3 mph 0.06 in Rain Rain
4:48 AM 57.2 °F 55.4 °F 94% 30.03 in 6.0 mi North 17.3 mph 25.3 mph 0.06 in Rain Rain
4:53 AM 57.9 °F 55.0 °F 90% 30.04 in 6.0 mi North 9.2 mph - 0.07 in Rain Rain
5:18 AM 57.2 °F 53.6 °F 88% 30.05 in 6.0 mi North 15.0 mph 24.2 mph 0.05 in Rain , Thunderstorm Rain
5:29 AM 55.4 °F 53.6 °F 94% 30.09 in 10.0 mi NW 11.5 mph 20.7 mph 0.05 in Rain Light Rain
5:39 AM 55.4 °F 53.6 °F 94% 30.08 in 10.0 mi NNW 13.8 mph 20.7 mph 0.05 in Rain Light Rain
5:50 AM 55.4 °F 51.8 °F 88% 30.07 in 10.0 mi North 16.1 mph 21.9 mph 0.05 in Rain Light Rain
5:53 AM 55.9 °F 52.0 °F 87% 30.07 in 10.0 mi NNW 13.8 mph - 0.06 in Rain Rain
6:53 AM 54.0 °F 51.1 °F 90% 30.09 in 10.0 mi NNW 12.7 mph - 0.01 in   Overcast
7:53 AM 54.0 °F 50.0 °F 86% 30.09 in 10.0 mi North 16.1 mph - 0.00 in   Mostly Cloudy
8:53 AM 54.0 °F 48.9 °F 83% 30.14 in 10.0 mi NNW 15.0 mph - N/A   Overcast
9:53 AM 54.0 °F 48.0 °F 80% 30.16 in 10.0 mi NNW 12.7 mph 19.6 mph N/A   Overcast
10:53 AM 55.0 °F 46.0 °F 72% 30.17 in 10.0 mi NNW 13.8 mph - N/A   Overcast
11:53 AM 55.0 °F 46.0 °F 72% 30.17 in 10.0 mi NNW 12.7 mph - N/A   Mostly Cloudy
12:53 PM 55.9 °F 46.0 °F 69% 30.15 in 10.0 mi NNW 13.8 mph - N/A   Mostly Cloudy
1:53 PM 60.1 °F 48.9 °F 67% 30.13 in 10.0 mi NNW 11.5 mph - N/A   Mostly Cloudy
2:53 PM 61.0 °F 48.0 °F 62% 30.13 in 10.0 mi North 10.4 mph - N/A   Mostly Cloudy
3:53 PM 61.0 °F 46.9 °F 60% 30.13 in 10.0 mi NNW 15.0 mph - N/A   Mostly Cloudy
4:53 PM 57.9 °F 45.0 °F 62% 30.15 in 10.0 mi NNW 16.1 mph - N/A   Clear
5:53 PM 55.9 °F 44.1 °F 64% 30.16 in 10.0 mi North 12.7 mph - N/A   Clear
6:53 PM 54.0 °F 45.0 °F 72% 30.19 in 10.0 mi NNW 6.9 mph - N/A   Clear
7:53 PM 54.0 °F 44.1 °F 69% 30.21 in 10.0 mi NNW 9.2 mph - N/A   Clear
8:53 PM 53.1 °F 42.1 °F 66% 30.22 in 10.0 mi North 15.0 mph - N/A   Clear
9:53 PM 52.0 °F 42.1 °F 69% 30.21 in 10.0 mi North 15.0 mph - N/A   Clear
10:53 PM 51.1 °F 41.0 °F 68% 30.23 in 10.0 mi North 13.8 mph - N/A   Clear
11:53 PM 50.0 °F 39.9 °F 68% 30.25 in 10.0 mi North 12.7 mph - N/A   Clear